Home   Weather   33°28'N, 112°07'W   Past weeks
Flag for USA

Past Weather in 33°28'N, 112°07'W, USA — Yesterday and Last 2 Weeks

Now
76 °F

Sunny.


Feels Like: 76 °F
Forecast: 90 / 59 °F
Wind: 10 mph from Northeast

Location: Phoenix Sky Harbor International Airport

Current Time: Oct 22, 2019 at 9:40:23 am

Latest Report: Oct 22, 2019 at 8:51 am


Visibility: 10 mi

Pressure: 30.06 "Hg

Humidity: 15%

Dew Point: 25 °F

Location of 33°28'N, 112°07'WLocation

Past Weather in 33°28'N, 112°07'W — Graph

°F

33°28'N, 112°07'W Temperature Yesterday

Maximum temperature yesterday: 85 °F (at 3:51 pm)
Minimum temperature yesterday: 60 °F (at 3:51 am)
Average temperature yesterday: 72 °F

High & Low Weather Summary for the Past Weeks

 TemperatureHumidityPressure
High98 °F (Oct 7, 2:51 pm)51% (Oct 15, 2:51 am)30.05 "Hg (Oct 15, 2:51 am)
Low58 °F (Oct 20, 5:51 am)4% (Oct 11, 10:51 am)29.54 "Hg (Oct 17, 5:51 pm)
Average78 °F23%29.79 "Hg
* Reported Oct 7 7:51 am — Oct 22 7:51 am, 33°28'N, 112°07'W. Weather by CustomWeather, © 2019

Note: Actual official high and low records may vary slightly from our data, if they occured in-between our weather recording intervals... More about our weather records

Advertising

33°28'N, 112°07'W Weather History for the Previous 24 Hours

Scroll right to see more
 ConditionsComfort  
Time TempWeatherWind HumidityBarometerVisibility
7:51 am
Tue, Oct 22
68 °FSunny.3 mph23%30.05 "Hg10 mi
6:51 am63 °FSunny.5 mph29%30.04 "Hg10 mi
5:51 am60 °FPassing clouds.No wind36%30.03 "Hg10 mi
4:51 am62 °FPassing clouds.No wind32%30.01 "Hg10 mi
3:51 am64 °FClear.3 mph28%30.00 "Hg10 mi
2:51 am63 °FClear.5 mph30%30.01 "Hg10 mi
1:51 am66 °FClear.No wind28%30.00 "Hg10 mi
12:51 am68 °FPassing clouds.3 mph26%30.00 "Hg10 mi
11:51 pm
Mon, Oct 21
68 °FPassing clouds.3 mph28%29.99 "Hg10 mi
10:51 pm70 °FPassing clouds.3 mph25%29.99 "Hg10 mi
9:51 pm73 °FPassing clouds.3 mph19%29.97 "Hg10 mi
8:51 pm76 °FPassing clouds.No wind15%29.96 "Hg10 mi
7:51 pm77 °FPassing clouds.No wind14%29.95 "Hg10 mi
6:51 pm79 °FPassing clouds.5 mph12%29.94 "Hg10 mi
5:51 pm83 °FPassing clouds.7 mph10%29.91 "Hg10 mi
4:51 pm84 °FPartly sunny.5 mph9%29.91 "Hg10 mi
3:51 pm85 °FScattered clouds.8 mph10%29.91 "Hg10 mi
2:51 pm83 °FScattered clouds.3 mph8%29.91 "Hg10 mi
1:51 pm81 °FPassing clouds.3 mph8%29.93 "Hg10 mi
12:51 pm81 °FPassing clouds.6 mph7%29.96 "Hg10 mi
11:51 am80 °FPassing clouds.3 mph7%29.97 "Hg10 mi
10:51 am76 °FPassing clouds.No wind9%29.99 "Hg10 mi
9:51 am73 °FPassing clouds.5 mph13%29.99 "Hg10 mi
Weather by CustomWeather, © 2019

See weather overview